Regional Weather Roundup
Issued by NWS

Home | Current Version | Previous Version | Graphics & Text | Print | Product List | Glossary On
Versions: 1 2 3 4 5 6 7 8 9 10 11 12 13 14 15 16 17 18 19 20 21 22 23 24 25 26 27 28 29 30 31 32 33 34 35 36 37 38 39 40 41 42 43 44 45 46 47 48 49 50
534
ASUS43 KMKX 300221
RWRWI

WISCONSIN REGIONAL WEATHER ROUNDUP
NATIONAL WEATHER SERVICE MILWAUKEE/SULLIVAN WI
900 PM CDT MON AUG 29 2016

NOTE: "FAIR" INDICATES FEW OR NO CLOUDS BELOW 12,000 FEET WITH NO
SIGNIFICANT WEATHER AND/OR OBSTRUCTIONS TO VISIBILITY.

WIZ001-002-006>008-014>016-023>028-300300-
NORTHWEST WISCONSIN

CITY           SKY/WX    TMP DP  RH WIND       PRES   REMARKS
SUPERIOR ARPT  CLOUDY    73  62  69 SW18G25   30.11R
ASHLAND        CLOUDY    70  69  97 S3        30.12S
HAYWARD        RAIN      72  68  87 VRB6      30.19R FOG
SIREN          RAIN      70  68  94 CALM      30.14F
CUMBERLAND     CLOUDY    72  68  88 SE5       30.15F
RICE LAKE      CLOUDY    72  68  88 SE3       30.16F
CHETEK         NOT AVBL
LADYSMITH      CLOUDY    73  70  91 S3        30.18S
EAU CLAIRE     PTCLDY    77  72  84 S6        30.15R
MENOMONIE      CLEAR     76  71  84 S7        30.16S
NEW RICHMOND   PTCLDY    75  73  91 S7        30.15R
OSCEOLA        CLOUDY    75  75 100 SE3       30.16R
$$

WIZ003>005-009-010-017-018-300300-
NORTH CENTRAL WISCONSIN

CITY           SKY/WX    TMP DP  RH WIND       PRES   REMARKS
MANITOWISH WTR NOT AVBL
ARBOR VITAE    CLOUDY    72  68  88 SW3       30.18R
WOODRUFF       CLOUDY    72  68  88 SW3       30.18R
RHINELANDER    CLOUDY    73  71  93 SW7       30.18S
EAGLE RIVER    CLOUDY    67  67 100 SW5       30.17R
LAND O LAKES   CLOUDY    73  66  78 SW5       30.17R
PHILLIPS       CLOUDY    72  70  94 SW3       30.17S
TOMAHAWK       CLOUDY    69  67  95 CALM      30.19R
MEDFORD        MOCLDY    72  72 100 S5        30.19R
MERRILL        CLEAR     73  72  95 SW5       30.19R
$$

WIZ029-030-035-036-043>047-300300-
CENTRAL WISCONSIN

CITY           SKY/WX    TMP DP  RH WIND       PRES   REMARKS
WAUSAU         CLEAR     74  69  85 S3        30.17R
MOSINEE        CLEAR     70  70 100 CALM      30.19R
MARSHFIELD     CLEAR     72  68  87 SW5       30.19R
STEVENS POINT  PTCLDY    71  69  92 SW3       30.19R
WAUPACA        PTCLDY    74  73  96 CALM      30.18R
WAUTOMA        PTCLDY    70  69  97 CALM      30.18R
WISC RAPIDS    CLEAR     72  71  97 CALM      30.20R
CAMP DOUGLAS   PTCLDY    72  70  94 S3        30.18R
$$

WIZ011>013-019>022-031-037>040-048>050-300300-
NORTHEAST WISCONSIN

CITY           SKY/WX    TMP DP  RH WIND       PRES   REMARKS
ANTIGO         CLEAR     68  66  92 CALM      30.19S
SHAWANO        PTCLDY    77  71  82 CALM      30.16S
OCONTO         NOT AVBL
STURGEON BAY   MOCLDY    71  65  81 S8        30.16S
GREEN BAY      PTCLDY    73  71  93 S5        30.16S
MANITOWOC      CLEAR     66  64  93 MISG      30.17S
APPLETON       MOCLDY    73  66  78 VRB5      30.16S
CLINTONVILLE   PTCLDY    72  70  94 S5        30.16S
OSHKOSH        PTCLDY    72  69  90 S5        30.17R
$$

WIZ032>034-041-042-053>061-300300-
SOUTHWEST WISCONSIN

CITY           SKY/WX    TMP DP  RH WIND       PRES   REMARKS
LA CROSSE      PTCLDY    76  72  87 S5        30.16R
SPARTA         CLEAR     70  69  96 CALM      30.19R
VIROQUA        CLEAR     71  71 100 S5        30.20S
BOSCOBEL       FOG       73  71  93 CALM      30.17R VSB 3/4
PRAIRIE DU CHI CLOUDY    74  72  93 CALM      30.16S FOG
PLATTEVILLE    MOCLDY    75  75 100 CALM      30.19R
$$

WIZ056-057-062-063-064-067-068-300300-
SOUTH CENTRAL WISCONSIN

CITY           SKY/WX    TMP DP  RH WIND       PRES   REMARKS
REEDSBURG      NOT AVBL
BARABOO/DELLS  CLEAR     70  67  91 CALM      30.18S
LONE ROCK      CLEAR     72  70  93 CALM      30.18R
MINERAL POINT  CLOUDY    73  73 100 CALM      30.20R
MADISON        PTCLDY    76  69  79 CALM      30.16F
MIDDLETON      PTCLDY    74  73  96 W3        30.18R
WATERTOWN      CLOUDY    71  70  95 CALM      30.16F
MONROE         CLOUDY    70  68  94 SW8       30.18R
JANESVILLE     PTCLDY    72  70  94 SE5       30.15F
$$

WIZ051-052-058>065-066-070>072-300300-
SOUTHEAST WISCONSIN

CITY           SKY/WX    TMP DP  RH WIND       PRES   REMARKS
MILWAUKEE      MOCLDY    75  70  84 SE6       30.17F
WAUKESHA       PTCLDY    72  66  83 S6        30.18F
MILWAUKEE/TIMM CLEAR     75  64  69 CALM      30.18S
RACINE         CLOUDY    74  70  87 SE5       30.18F
BURLINGTON     CLOUDY    67  66  94 CALM      30.17S
KENOSHA        MOCLDY    75  70  84 SE5       30.17F
FOND DU LAC    PTCLDY    72  68  87 CALM      30.18R
SHEBOYGAN      PTCLDY    68  63  84 SW3       30.18S
WEST BEND      PTCLDY    68  64  88 CALM      30.18S
JUNEAU         CLOUDY    72  68  86 CALM      30.19S
$$

LSZ147-162-300300-
LAKE SUPERIOR

STATION/POSITION TIME  TEMP    WIND        PRES    WAVE
                       AIR SEA DIR/SP/G            HT/PER
                 (UTC) (F)     (DEG/KT/KT) (MB)    (FT/S)
W MID LAKE BUOY  0150   69 69  180/  4/  4 1017.7F   1
DEVILS ISLAND    0200   76     220/  7/  7 1018.7R
PORT WING        0140   76     190/  6/  8 1019.3R
SAXON HARBOR     0100   74     210/  9/ 17 1019.0
$$

LMZ867-665-643>646-300300-
LAKE MICHIGAN

STATION/POSITION TIME  TEMP    WIND        PRES    WAVE
                       AIR SEA DIR/SP/G            HT/PER
                 (UTC) (F)     (DEG/KT/KT) (MB)    (FT/S)
CHAMBERS ISLAND  0100   74     160/  4/ 10 1020.3
S GREEN BAY BUOY 0200   75 74  180/ 12/ 14 1020.1F
N MID LAKE BUOY  0150   72 71  200/ 12/ 14 1020.1F   1/ 3
NORTHPORT PIER   0100   73     170/  4/  7 1020.7S
SISTER BAY       0137   74     170/ 12/ 15   N/A
ALGOMA LAKESHORE 0015          210/  9/ 10   N/A
KEWAUNEE LAKESHO 0100   66     180/  7/  8 1021.2F
SHEBOYGAN LAKESH 0200   69     180/  9/ 10 1021.2S
PORT WASHINGTON  0100   72     180/  4/  5 1022.4S
ATWATER BUOY     0200   69     190/  4/  4   N/A
MILWAUKEE LAKESH 0210   70      CALM  /  1   N/A
S MID LAKE BUOY  0150   76 77   80/  6/  6 1021.1F   0
KENOSHA   LAKESH 0200   74        CALM     1020.7F
$$

TC  - TEMPERATURE IN CELSIUS
VSB - VISIBILITY IN STATUTE MILES
WCI - WIND CHILL INDEX
HX  - HEAT INDEX





USA.gov is the U.S. government's official web portal to all federal, state and local government web resources and services.